Location: Maddington
(51.2000°N, 1.9167°W)
Time: 15:26:52
(UTC+00:00)

NOSS 2-2 (E) - Pass Details

Date: 21 January 2021
Orbit: 462 x 1744 km, 63.3° (Epoch: 03 March)

Event Time Altitude Azimuth Distance (km) Brightness Sun altitude
Rises 21:12:16 0° 314° (NW) 3,088 7.9 -41.8°
Reaches altitude 10° 21:14:18 10° 313° (NW) 2,307 7.0 -42.1°
Enters shadow 21:15:02 15° 312° (NW) 2,039 6.7 -42.2°
